User: anonymous   Login
Location: Theydon Bois
(51.6750°N, 0.1050°E)
Time: 15:11:46
(UTC+01:00)
Language:

RESURS DK-1 - Orbit

View from above orbital plane
View from above orbital plane
View from above satellite
View from above satellite

Ground track
Ground track

The orbit data is extracted from the following two-line orbital elements,

1 29228U 06021A   18170.19420447  .00000047  00000-0  10947-4 0  9996
2 29228  69.9356 244.2005 0003534 180.6125 179.5032 15.02329592663211
Epoch (UTC): 19 June 2018 04:39:39
Eccentricity: 0.0003534
inclination: 69.9356°
perigee height: 557 km
apogee height: 562 km
right ascension of ascending node: 244.2005°
argument of perigee: 180.6125°
revolutions per day: 15.02329592
mean anomaly at epoch: 179.5032°
orbit number at epoch: 66321

The dashed part of the orbit path shows where the satellite is in the earth's shadow,  

DLR